Regional Weather Roundup
Issued by NWS

Home | Current Version | Previous Version | Text Only | Print | Product List | Glossary Off
Versions: 1 2 3 4 5 6 7 8 9 10 11 12 13 14 15 16 17 18 19 20 21 22 23 24 25 26 27 28 29 30 31 32 33 34 35 36 37 38 39 40 41 42 43 44 45 46 47 48 49 50

000
ASUS43 KLSX 261807
RWRMO

WEATHER SUMMARY FOR MISSOURI
NATIONAL WEATHER SERVICE SPRINGFIELD MO
1200 PM CST FRI DEC 26 2014

NOTE: "FAIR" INDICATES FEW OR NO CLOUDS BELOW 12,000 FEET WITH NO
       SIGNIFICANT WEATHER AND/OR OBSTRUCTIONS TO VISIBILITY.
       CURRENT SKY AND/OR WEATHER CONDITIONS ARE NOT AVAILABLE FOR
       CHILLICOTHE AND FARMINGTON.

MOZ001>031-035>038-043-044-053-054-261900-
...NORTHERN AND WESTERN MISSOURI...

CITY           SKY/WX    TMP DP  RH WIND       PRES   REMARKS
KANSAS CTY INT CLOUDY    49  40  71 W7        29.93F
6HR MIN TEMP:  42; 6HR MAX TEMP:  49;

KANSAS C DTWN  PTSUNNY   54  42  64 SW13      29.93F
6HR MIN TEMP:  47; 6HR MAX TEMP:  54;

LEE`S SUMMIT   PTSUNNY   51  42  71 S12       29.94F
6HR MIN TEMP:  42; 6HR MAX TEMP:  51;

ST JOSEPH      CLOUDY    35  32  88 N6        29.97F
6HR MIN TEMP:  34; 6HR MAX TEMP:  40;

CHILLICOTHE      N/A     50  40  68 S14       29.95F
6HR MIN TEMP:  42; 6HR MAX TEMP:  50;

KIRKSVILLE     FAIR      51  41  68 SW10      29.96F
6HR MIN TEMP:  36; 6HR MAX TEMP:  51;


$$
MOZ066>068-077>081-088>096-101>105-261900-
...SOUTHWEST MISSOURI...

CITY           SKY/WX    TMP DP  RH WIND       PRES   REMARKS
SPRINGFIELD    PTSUNNY   54  43  66 S17G25    30.00F
6HR MIN TEMP:  41; 6HR MAX TEMP:  56;

JOPLIN         CLOUDY    58  46  64 SW18      29.96F
6HR MIN TEMP:  46; 6HR MAX TEMP:  59;


$$
MOZ032>034-039>042-045>050-055>058-069>072-261900-
...CENTRAL MISSOURI...

CITY           SKY/WX    TMP DP  RH WIND       PRES   REMARKS
COLUMBIA       FAIR      57  43  59 SW12      29.99F
6HR MIN TEMP:  39; 6HR MAX TEMP:  57;

JEFFERSON CITY FAIR      58  43  57 SW10G17   30.00F
6HR MIN TEMP:  41; 6HR MAX TEMP:  58;

ROLLA          FAIR      54  42  64 S15       30.02F
6HR MIN TEMP:  40; 6HR MAX TEMP:  54;

SEDALIA        FAIR      56  43  61 SW13G22   29.97F
6HR MIN TEMP:  44; 6HR MAX TEMP:  56;

WHITEMAN AFB   FAIR      55  44  66 SW15      29.94F
WARRENSBURG    FAIR      54  43  66 S15       29.95F
OSAGE BEACH    PTSUNNY   61  43  51 S18G24    29.99F

$$
MOZ051-052-059>065-261900-
...EAST CENTRAL MISSOURI...

CITY           SKY/WX    TMP DP  RH WIND       PRES   REMARKS
ST LOUIS INTL  FAIR      57  41  55 SW14      30.05F
6HR MIN TEMP:  42; 6HR MAX TEMP:  57;

SPIRIT OF STL  FAIR      57  42  57 SW10G21   30.04F
6HR MIN TEMP:  43; 6HR MAX TEMP:  57;

ST CHARLES     FAIR      55  42  61 S10       30.04F
6HR MIN TEMP:  33; 6HR MAX TEMP:  55;


$$
MOZ072>076-082>087-097>100-106>115-261900-
...SOUTH CENTRAL AND SOUTHEAST MISSOURI...

CITY           SKY/WX    TMP DP  RH WIND       PRES   REMARKS
CAPE GIRARDEAU PTSUNNY   51  41  68 S15G24    30.17F
6HR MIN TEMP:  36; 6HR MAX TEMP:  51;

FARMINGTON     FAIR      52  41  66 S13G20    30.11F
6HR MIN TEMP:  37; 6HR MAX TEMP:  52;

POPLAR BLUFF   PTSUNNY   51  39  63 S14       30.16F
6HR MIN TEMP:  32; 6HR MAX TEMP:  52;

WEST PLAINS    PTSUNNY   50  42  74 S15       30.11F
6HR MIN TEMP:  36; 6HR MAX TEMP:  50;


$$


USA.gov is the U.S. government's official web portal to all federal, state and local government web resources and services.